Location: Unspecified
(51.0950°N, 12.9690°E)
Time: 23:21:49
(UTC+00:00)

First-Move - Visible Passes

Search period start: 24 April 2024 00:00
Search period end: 04 May 2024 00:00
Orbit: 540 x 605 km, 97.7° (Epoch: 24 April)

Date Brightness Start Highest point End Pass type
(mag) Time Alt. Az. Time Alt. Az. Time Alt. Az.
24 Apr ? 02:24:38 10° NNE 02:28:50 53° E 02:33:00 10° S visible
25 Apr ? 02:27:17 10° NNE 02:31:30 56° E 02:35:42 10° S visible
26 Apr ? 02:29:54 10° NNE 02:34:08 60° E 02:38:20 10° S visible
27 Apr ? 02:32:27 10° NNE 02:36:42 64° ESE 02:40:55 10° S visible
28 Apr ? 02:34:57 10° NNE 02:39:12 67° ESE 02:43:26 10° S visible
29 Apr ? 02:37:23 10° NNE 02:41:39 71° ESE 02:45:53 10° S visible
30 Apr ? 02:39:46 10° NNE 02:44:03 75° ESE 02:48:17 10° S visible
01 May ? 02:42:06 10° NNE 02:46:23 79° ESE 02:50:37 10° S visible
02 May ? 01:11:55 10° ENE 01:12:49 11° E 01:13:42 10° E visible
02 May ? 02:44:22 10° NNE 02:48:40 83° ESE 02:52:53 10° SSW visible
03 May ? 01:13:48 10° ENE 01:15:04 11° E 01:16:19 10° ESE visible
03 May ? 02:46:36 10° NNE 02:50:52 87° E 02:55:06 10° SSW visible
